EW4750 Weather Reports


time (UTC)temp
C
wind
direction
speed
KPH
gust
KPH
rain 1hr
cm
rain 24hr
cm
rain mn
cm
humidity
%
barometer
mb
20260504214546 28 265 4.8 11.3 0.00 0.00 0.00 27 1004.6
20260504213101 28 108 3.2 9.7 0.00 0.00 0.00 29 1004.8
20260504211541 27 106 3.2 12.9 0.00 0.00 0.00 28 1005.0
20260504210037 27 98 6.4 12.9 0.00 0.00 0.00 31 1005.2
20260504204534 27 78 4.8 12.9 0.00 0.00 0.00 28 1005.4
20260504203034 26 109 4.8 11.3 0.00 0.00 0.00 32 1005.5
20260504201533 26 88 8.0 14.5 0.00 0.00 0.00 33 1005.7
20260504200025 26 194 3.2 12.9 0.00 0.00 0.00 37 1005.8
20260504194522 25 121 3.2 9.7 0.00 0.00 0.00 45 1006.0
20260504193019 25 82 3.2 11.3 0.00 0.00 0.00 46 1006.2
20260504191515 24 76 3.2 11.3 0.00 0.00 0.00 48 1006.3
20260504190011 23 87 4.8 12.9 0.00 0.00 0.00 48 1006.5
20260504184513 23 139 4.8 12.9 0.00 0.00 0.00 49 1006.8
20260504183007 23 27 8.0 11.3 0.00 0.00 0.00 49 1006.8
20260504181504 22 59 6.4 9.7 0.00 0.00 0.00 47 1006.9
20260504180100 22 45 4.8 11.3 0.00 0.00 0.00 49 1006.9
20260504174612 21 139 1.6 9.7 0.00 0.00 0.00 49 1007.0
20260504173057 21 68 4.8 8.0 0.00 0.00 0.00 52 1007.2
20260504171550 20 355 3.2 8.0 0.00 0.00 0.00 53 1007.2
20260504110111 12 360 8.0 16.1 0.00 0.00 0.00 64 1007.5
20260504081528 14 244 3.2 14.5 0.00 0.00 0.00 55 1007.2
20260504050012 15 208 0.0 3.2 0.00 0.00 0.00 60 1007.1
20260504044530 15 219 3.2 4.8 0.00 0.00 0.00 63 1007.1
20260504043016 16 219 0.0 3.2 0.00 0.00 0.00 58 1006.8
20260504041510 17 210 0.0 6.4 0.00 0.00 0.00 55 1006.8
20260504040010 17 213 3.2 8.0 0.00 0.00 0.00 55 1006.6
20260504034508 18 196 6.4 11.3 0.00 0.00 0.00 52 1006.5
20260504033010 19 228 4.8 8.0 0.00 0.00 0.00 50 1006.3
20260504031508 20 210 8.0 9.7 0.00 0.00 0.00 53 1006.3
20260504030006 21 200 6.4 9.7 0.00 0.00 0.00 49 1006.2
20260504024514 23 172 0.0 3.2 0.00 0.00 0.00 43 1006.0
20260504023006 24 82 3.2 4.8 0.00 0.00 0.00 41 1005.9
20260504021505 25 80 0.0 1.6 0.00 0.00 0.00 35 1005.9
20260504020012 26 80 0.0 6.4 0.00 0.00 0.00 32 1005.9
20260504014505 26 76 1.6 9.7 0.00 0.00 0.00 33 1005.9
20260504013008 27 53 3.2 9.7 0.00 0.00 0.00 32 1005.9
20260504011501 27 71 6.4 11.3 0.00 0.00 0.00 29 1006.0
20260504010109 27 38 6.4 12.9 0.00 0.00 0.00 28 1006.3
20260504004557 27 57 4.8 12.9 0.00 0.00 0.00 31 1006.5
20260504003056 27 92 3.2 11.3 0.00 0.00 0.00 30 1006.6
20260504001610 27 67 9.7 12.9 0.00 0.00 0.00 27 1006.8
20260504000051 28 95 8.0 12.9 0.00 0.00 0.00 26 1006.9
20260503234548 28 167 1.6 8.0 0.00 0.00 0.00 27 1007.2
20260503233045 28 88 4.8 12.9 0.00 0.00 0.00 26 1007.4
20260503231542 27 74 8.0 11.3 0.00 0.00 0.00 28 1007.7
20260503230040 27 74 8.0 11.3 0.00 0.00 0.00 26 1007.9
20260503224537 28 155 4.8 9.7 0.00 0.00 0.00 28 1008.1
20260503223034 27 185 6.4 9.7 0.00 0.00 0.00 28 1008.4
20260503221538 27 5 3.2 14.5 0.00 0.00 0.00 27 1008.7
20260503220030 27 343 8.0 14.5 0.00 0.00 0.00 32 1008.8